QPF
0.02 0.03 0.03 0.02 0.02 0.02 0.03 0.03 0.03 0.04 0.05 0.05 0.03 0.02 0.01 0.02 0.03 0.04 0.04 0.04 0.03 0.03 0.03 0.04 0.04 0.05 0.04 0.03 0.03 0.03 0.02 0.02 0.02 0.02 0.03 0.05 0.08 0.10 0.11 0.11 0.10 0.09 0.07 0.07
0.03 0.03 0.02 0.02 0.03 0.03 0.03 0.03 0.03 0.04 0.04 0.05 0.04 0.03 0.02 0.02 0.03 0.03 0.03 0.03 0.03 0.03 0.03 0.03 0.04 0.04 0.05 0.05 0.04 0.03 0.02 0.02 0.02 0.03 0.03 0.04 0.05 0.06 0.08 0.10 0.11 0.10 0.08 0.07
0.03 0.02 0.01 0.02 0.03 0.04 0.02 0.03 0.03 0.04 0.05 0.06 0.06 0.05 0.03 0.02 0.03 0.03 0.03 0.03 0.03 0.03 0.03 0.03 0.04 0.05 0.05 0.06 0.04 0.03 0.03 0.03 0.03 0.03 0.03 0.03 0.04 0.04 0.05 0.07 0.07 0.07 0.07 0.06
0.02 0.02 0.02 0.02 0.03 0.04 0.03 0.02 0.02 0.03 0.05 0.07 0.07 0.08 0.04 0.02 0.02 0.02 0.02 0.02 0.02 0.02 0.03 0.03 0.04 0.05 0.05 0.06 0.07 0.04 0.03 0.03 0.02 0.02 0.03 0.04 0.04 0.04 0.04 0.06 0.06 0.05 0.05 0.04
0.03 0.01 0.02 0.03 0.03 0.04 0.03 0.02 0.02 0.03 0.05 0.06 0.07 0.08 0.05 0.02 0.03 0.02 0.02 0.02 0.02 0.02 0.03 0.04 0.04 0.05 0.06 0.06 0.07 0.07 0.06 0.04 0.03 0.02 0.03 0.05 0.06 0.06 0.06 0.06 0.05 0.04 0.04 0.04
0.04 0.02 0.02 0.03 0.03 0.03 0.03 0.04 0.04 0.05 0.06 0.06 0.05 0.07 0.07 0.03 0.03 0.02 0.02 0.02 0.03 0.03 0.04 0.05 0.05 0.05 0.05 0.05 0.05 0.05 0.06 0.07 0.06 0.05 0.04 0.04 0.05 0.06 0.05 0.04 0.04 0.04 0.04 0.05
0.04 0.04 0.03 0.03 0.03 0.04 0.05 0.06 0.06 0.07 0.07 0.05 0.04 0.05 0.07 0.05 0.04 0.03 0.03 0.03 0.04 0.05 0.04 0.04 0.04 0.04 0.04 0.04 0.04 0.04 0.04 0.06 0.07 0.07 0.06 0.04 0.03 0.02 0.02 0.02 0.03 0.03 0.04 0.05
0.02 0.04 0.04 0.03 0.04 0.05 0.05 0.05 0.04 0.04 0.04 0.04 0.05 0.05 0.05 0.04 0.04 0.04 0.04 0.04 0.04 0.04 0.05 0.05 0.05 0.05 0.04 0.04 0.04 0.04 0.03 0.04 0.04 0.05 0.06 0.05 0.04 0.03 0.03 0.04 0.04 0.05 0.05 0.06
0.01 0.03 0.03 0.03 0.03 0.03 0.04 0.04 0.04 0.04 0.03 0.03 0.04 0.05 0.04 0.03 0.03 0.03 0.03 0.03 0.02 0.03 0.04 0.05 0.06 0.07 0.07 0.06 0.05 0.05 0.04 0.04 0.03 0.03 0.04 0.04 0.04 0.04 0.04 0.04 0.05 0.06 0.06 0.07
0.01 0.02 0.03 0.02 0.01 0.02 0.03 0.02 0.02 0.03 0.04 0.03 0.03 0.03 0.03 0.03 0.03 0.02 0.02 0.03 0.02 0.02 0.03 0.04 0.05 0.06 0.07 0.07 0.07 0.05 0.04 0.03 0.03 0.03 0.04 0.04 0.04 0.04 0.04 0.03 0.04 0.04 0.05 0.05
0.01 0.01 0.01 0.01 0.02 0.03 0.02 0.02 0.01 0.02 0.03 0.02 0.02 0.03 0.02 0.02 0.02 0.02 0.02 0.02 0.02 0.02 0.02 0.03 0.03 0.04 0.05 0.05 0.05 0.05 0.04 0.03 0.03 0.03 0.03 0.03 0.04 0.04 0.04 0.04 0.04 0.04 0.04 0.05
0.00 0.01 0.01 0.01 0.02 0.01 0.01 0.01 0.01 0.02 0.02 0.02 0.01 0.02 0.02 0.02 0.02 0.03 0.02 0.02 0.02 0.02 0.01 0.01 0.02 0.02 0.03 0.04 0.04 0.03 0.03 0.03 0.03 0.03 0.03 0.03 0.03 0.02 0.02 0.02 0.02 0.02 0.02 0.03
0.01 0.01 0.01 0.01 0.02 0.02 0.01 0.01 0.01 0.01 0.01 0.01 0.01 0.02 0.02 0.02 0.02 0.03 0.03 0.02 0.02 0.02 0.02 0.01 0.01 0.02 0.02 0.02 0.03 0.03 0.03 0.03 0.02 0.02 0.03 0.03 0.02 0.02 0.02 0.01 0.01 0.01 0.01 0.01
0.02 0.01 0.01 0.00 0.01 0.01 0.01 0.01 0.01 0.01 0.01 0.01 0.01 0.01 0.01 0.02 0.02 0.02 0.02 0.02 0.02 0.02 0.02 0.02 0.02 0.02 0.02 0.02 0.02 0.02 0.03 0.03 0.03 0.02 0.02 0.02 0.02 0.01 0.01 0.01 0.01 0.01 0.01 0.00
0.01 0.01 0.00 0.01 0.01 0.01 0.01 0.01 0.01 0.01 0.01 0.01 0.01 0.01 0.01 0.02 0.02 0.01 0.01 0.01 0.01 0.02 0.02 0.02 0.02 0.02 0.02 0.03 0.03 0.03 0.03 0.02 0.02 0.02 0.02 0.02 0.03 0.02 0.02 0.02 0.01 0.01 0.01 0.01
0.01 0.01 0.00 0.00 0.01 0.01 0.01 0.01 0.00 0.00 0.00 0.00 0.01 0.01 0.01 0.01 0.01 0.01 0.01 0.01 0.01 0.01 0.01 0.01 0.01 0.01 0.02 0.02 0.02 0.02 0.02 0.01 0.01 0.01 0.02 0.02 0.03 0.03 0.02 0.02 0.02 0.02 0.01 0.01
0.01 0.01 0.00 0.00 0.00 0.00 0.00 0.00 0.00 0.00 0.00 0.00 0.00 0.00 0.00 0.01 0.01 0.01 0.01 0.01 0.01 0.01 0.01 0.01 0.01 0.01 0.01 0.01 0.01 0.01 0.01 0.01 0.01 0.01 0.02 0.02 0.02 0.03 0.02 0.02 0.02 0.02 0.01 0.01
0.01 0.00 0.00 0.00 0.00 0.00 0.00 0.00 0.00 0.00 0.00 0.00 0.00 0.00 0.00 0.00 0.00 0.01 0.01 0.01 0.01 0.00 0.00 0.00 0.00 0.01 0.01 0.01 0.01 0.01 0.01 0.01 0.01 0.01 0.02 0.02 0.02 0.02 0.02 0.02 0.02 0.01 0.01 0.01
0.00 0.00 0.00 0.00 0.00 0.00 0.00 0.00 0.00 0.00 0.00 0.00 0.00 0.00 0.00 0.00 0.00 0.00 0.00 0.00 0.00 0.00 0.00 0.00 0.00 0.01 0.01 0.01 0.01 0.01 0.01 0.01 0.01 0.01 0.02 0.02 0.02 0.02 0.02 0.02 0.02 0.01 0.01 0.01
0.00 0.00 0.00 0.00 0.00 0.00 0.00 0.00 0.00 0.00 0.00 0.00 0.00 0.00 0.00 0.00 0.00 0.00 0.00 0.00 0.00 0.00 0.00 0.00 0.00 0.00 0.01 0.01 0.01 0.01 0.01 0.01 0.01 0.01 0.02 0.02 0.02 0.03 0.02 0.02 0.01 0.02 0.02 0.02
0.00 0.00 0.00 0.00 0.00 0.00 0.00 0.00 0.00 0.00 0.00 0.00 0.00 0.00 0.00 0.00 0.00 0.00 0.00 0.00 0.00 0.00 0.00 0.00 0.00 0.00 0.00 0.01 0.01 0.01 0.01 0.01 0.01 0.01 0.01 0.01 0.02 0.03 0.02 0.02 0.02 0.02 0.02 0.02
0.00 0.00 0.00 0.00 0.00 0.00 0.00 0.00 0.00 0.00 0.00 0.00 0.00 0.00 0.00 0.00 0.00 0.00 0.00 0.00 0.00 0.00 0.00 0.00 0.00 0.00 0.00 0.00 0.01 0.01 0.01 0.01 0.01 0.01 0.01 0.01 0.02 0.02 0.02 0.02 0.03 0.03 0.02 0.02
0.00 0.00 0.00 0.00 0.00 0.00 0.00 0.00 0.00 0.00 0.00 0.00 0.00 0.00 0.00 0.00 0.00 0.00 0.00 0.00 0.00 0.00 0.00 0.00 0.00 0.00 0.00 0.00 0.00 0.00 0.01 0.01 0.01 0.01 0.01 0.01 0.01 0.01 0.01 0.01 0.02 0.02 0.02 0.01
0.00 0.00 0.00 0.00 0.00 0.00 0.00 0.00 0.00 0.00 0.00 0.00 0.00 0.00 0.00 0.00 0.00 0.00 0.00 0.00 0.00 0.00 0.00 0.00 0.00 0.00 0.00 0.00 0.00 0.00 0.00 0.00 0.01 0.01 0.01 0.01 0.01 0.01 0.01 0.01 0.01 0.01 0.01 0.01
0.00 0.00 0.00 0.00 0.00 0.00 0.00 0.00 0.00 0.00 0.00 0.00 0.00 0.00 0.00 0.00 0.00 0.00 0.00 0.00 0.00 0.00 0.00 0.00 0.00 0.00 0.00 0.00 0.00 0.00 0.00 0.00 0.00 0.00 0.01 0.01 0.01 0.01 0.01 0.01 0.01 0.01 0.01 0.02
0.00 0.00 0.00 0.00 0.00 0.00 0.00 0.00 0.00 0.00 0.00 0.00 0.00 0.00 0.00 0.00 0.00 0.00 0.00 0.00 0.00 0.00 0.00 0.00 0.00 0.00 0.00 0.00 0.00 0.00 0.00 0.00 0.00 0.00 0.00 0.01 0.01 0.01 0.01 0.01 0.01 0.01 0.01 0.01
MSLP
1024.95 1024.80 1024.72 1024.67 1024.59 1024.43 1024.14 1023.68 1023.05 1022.26 1021.37 1020.44 1019.52 1018.69 1018.00 1017.47 1017.11 1016.90 1016.81 1016.79 1016.80 1016.81 1016.82 1016.82 1016.84 1016.92 1017.10 1017.41 1017.88 1018.50 1019.26 1020.13 1021.05 1021.97 1022.85 1023.65 1024.33 1024.89 1025.33 1025.67 1025.93 1026.13 1026.28 1026.40
1025.87 1025.71 1025.61 1025.52 1025.39 1025.17 1024.80 1024.26 1023.55 1022.71 1021.78 1020.84 1019.95 1019.20 1018.62 1018.24 1018.06 1018.04 1018.11 1018.23 1018.33 1018.38 1018.36 1018.26 1018.14 1018.04 1018.03 1018.14 1018.43 1018.91 1019.58 1020.39 1021.30 1022.26 1023.19 1024.04 1024.79 1025.41 1025.91 1026.29 1026.57 1026.79 1026.95 1027.07
1026.85 1026.65 1026.49 1026.34 1026.13 1025.82 1025.38 1024.77 1024.01 1023.12 1022.18 1021.26 1020.44 1019.78 1019.33 1019.12 1019.12 1019.29 1019.55 1019.82 1020.04 1020.15 1020.12 1019.96 1019.72 1019.46 1019.25 1019.16 1019.26 1019.57 1020.11 1020.84 1021.70 1022.64 1023.58 1024.47 1025.26 1025.92 1026.44 1026.85 1027.15 1027.38 1027.56 1027.70
1027.79 1027.53 1027.30 1027.06 1026.77 1026.39 1025.88 1025.22 1024.43 1023.54 1022.62 1021.74 1020.98 1020.43 1020.10 1020.05 1020.22 1020.55 1020.98 1021.41 1021.74 1021.93 1021.92 1021.73 1021.41 1021.02 1020.65 1020.39 1020.32 1020.47 1020.87 1021.49 1022.28 1023.17 1024.08 1024.96 1025.75 1026.41 1026.95 1027.37 1027.69 1027.93 1028.13 1028.29
1028.63 1028.31 1028.00 1027.68 1027.31 1026.87 1026.32 1025.64 1024.85 1023.99 1023.11 1022.29 1021.61 1021.14 1020.92 1020.98 1021.27 1021.74 1022.30 1022.84 1023.28 1023.54 1023.58 1023.40 1023.04 1022.58 1022.11 1021.74 1021.53 1021.55 1021.83 1022.34 1023.03 1023.84 1024.70 1025.54 1026.29 1026.94 1027.46 1027.87 1028.19 1028.46 1028.68 1028.87
1029.33 1028.95 1028.58 1028.19 1027.77 1027.30 1026.73 1026.07 1025.32 1024.51 1023.70 1022.95 1022.34 1021.94 1021.79 1021.91 1022.27 1022.81 1023.43 1024.05 1024.56 1024.89 1024.98 1024.83 1024.49 1024.02 1023.52 1023.09 1022.81 1022.75 1022.93 1023.34 1023.95 1024.67 1025.45 1026.21 1026.90 1027.50 1027.98 1028.38 1028.70 1028.97 1029.22 1029.45
1029.88 1029.46 1029.04 1028.62 1028.18 1027.70 1027.16 1026.54 1025.86 1025.12 1024.39 1023.72 1023.18 1022.83 1022.71 1022.85 1023.21 1023.75 1024.39 1025.02 1025.56 1025.93 1026.07 1025.98 1025.69 1025.27 1024.80 1024.38 1024.09 1023.99 1024.12 1024.46 1024.97 1025.61 1026.29 1026.96 1027.58 1028.10 1028.54 1028.90 1029.21 1029.49 1029.76 1030.03
1030.30 1029.87 1029.43 1028.99 1028.55 1028.09 1027.59 1027.05 1026.44 1025.81 1025.17 1024.58 1024.10 1023.78 1023.67 1023.78 1024.11 1024.60 1025.19 1025.79 1026.31 1026.69 1026.88 1026.85 1026.64 1026.30 1025.91 1025.56 1025.30 1025.22 1025.32 1025.61 1026.06 1026.60 1027.18 1027.76 1028.28 1028.74 1029.11 1029.44 1029.73 1030.01 1030.29 1030.59
1030.65 1030.22 1029.78 1029.34 1028.91 1028.48 1028.03 1027.54 1027.03 1026.48 1025.94 1025.43 1025.01 1024.73 1024.61 1024.69 1024.96 1025.37 1025.88 1026.41 1026.90 1027.26 1027.47 1027.50 1027.38 1027.14 1026.86 1026.59 1026.41 1026.37 1026.48 1026.74 1027.12 1027.58 1028.07 1028.55 1028.99 1029.36 1029.68 1029.97 1030.23 1030.51 1030.80 1031.10
1030.97 1030.55 1030.11 1029.68 1029.26 1028.83 1028.41 1027.97 1027.51 1027.05 1026.59 1026.17 1025.81 1025.57 1025.47 1025.52 1025.73 1026.07 1026.49 1026.94 1027.36 1027.70 1027.92 1028.00 1027.96 1027.83 1027.65 1027.49 1027.39 1027.40 1027.52 1027.76 1028.10 1028.49 1028.89 1029.29 1029.64 1029.95 1030.22 1030.46 1030.71 1030.97 1031.25 1031.54
1031.29 1030.89 1030.46 1030.01 1029.56 1029.11 1028.66 1028.22 1027.78 1027.36 1026.97 1026.62 1026.35 1026.17 1026.10 1026.17 1026.35 1026.64 1027.00 1027.38 1027.75 1028.06 1028.28 1028.40 1028.43 1028.39 1028.31 1028.24 1028.22 1028.27 1028.42 1028.64 1028.93 1029.25 1029.59 1029.91 1030.20 1030.45 1030.68 1030.90 1031.13 1031.37 1031.63 1031.89
1031.64 1031.26 1030.81 1030.32 1029.80 1029.27 1028.74 1028.23 1027.76 1027.34 1026.98 1026.70 1026.50 1026.40 1026.41 1026.52 1026.73 1027.01 1027.35 1027.70 1028.04 1028.33 1028.56 1028.71 1028.79 1028.83 1028.83 1028.84 1028.88 1028.97 1029.13 1029.33 1029.58 1029.85 1030.13 1030.39 1030.64 1030.86 1031.07 1031.27 1031.48 1031.70 1031.92 1032.14
1032.02 1031.65 1031.17 1030.59 1029.95 1029.28 1028.61 1027.98 1027.41 1026.94 1026.58 1026.34 1026.21 1026.21 1026.31 1026.51 1026.78 1027.11 1027.47 1027.82 1028.16 1028.46 1028.70 1028.89 1029.03 1029.12 1029.20 1029.27 1029.36 1029.48 1029.64 1029.83 1030.05 1030.28 1030.51 1030.74 1030.96 1031.16 1031.36 1031.56 1031.75 1031.95 1032.14 1032.30
1032.42 1032.04 1031.50 1030.81 1030.01 1029.15 1028.29 1027.48 1026.77 1026.21 1025.81 1025.58 1025.52 1025.61 1025.82 1026.12 1026.49 1026.90 1027.31 1027.70 1028.07 1028.39 1028.67 1028.90 1029.09 1029.24 1029.38 1029.51 1029.65 1029.79 1029.96 1030.14 1030.33 1030.54 1030.75 1030.96 1031.17 1031.37 1031.57 1031.77 1031.96 1032.13 1032.28 1032.38
1032.80 1032.41 1031.79 1030.96 1029.98 1028.91 1027.83 1026.81 1025.94 1025.25 1024.79 1024.56 1024.54 1024.70 1025.02 1025.43 1025.90 1026.39 1026.87 1027.32 1027.73 1028.09 1028.41 1028.69 1028.93 1029.16 1029.36 1029.55 1029.73 1029.91 1030.10 1030.28 1030.47 1030.66 1030.86 1031.07 1031.28 1031.49 1031.71 1031.91 1032.09 1032.24 1032.35 1032.39
1033.14 1032.71 1032.01 1031.04 1029.88 1028.60 1027.30 1026.08 1025.04 1024.23 1023.70 1023.44 1023.45 1023.67 1024.06 1024.56 1025.11 1025.67 1026.20 1026.70 1027.15 1027.55 1027.91 1028.25 1028.56 1028.85 1029.13 1029.39 1029.64 1029.86 1030.08 1030.28 1030.48 1030.67 1030.88 1031.09 1031.31 1031.54 1031.76 1031.97 1032.14 1032.27 1032.33 1032.32
1033.37 1032.90 1032.11 1031.02 1029.69 1028.24 1026.77 1025.39 1024.21 1023.31 1022.71 1022.43 1022.45 1022.70 1023.14 1023.68 1024.27 1024.86 1025.42 1025.94 1026.41 1026.84 1027.24 1027.62 1028.00 1028.36 1028.72 1029.06 1029.38 1029.67 1029.93 1030.16 1030.38 1030.59 1030.81 1031.03 1031.26 1031.49 1031.72 1031.92 1032.08 1032.19 1032.21 1032.15
1033.43 1032.91 1032.04 1030.84 1029.41 1027.84 1026.26 1024.79 1023.54 1022.59 1021.97 1021.69 1021.71 1021.97 1022.41 1022.96 1023.55 1024.12 1024.66 1025.16 1025.61 1026.04 1026.46 1026.88 1027.31 1027.75 1028.19 1028.61 1029.00 1029.36 1029.68 1029.95 1030.20 1030.42 1030.64 1030.87 1031.10 1031.33 1031.55 1031.74 1031.88 1031.96 1031.95 1031.85
1033.27 1032.68 1031.73 1030.47 1028.98 1027.37 1025.76 1024.29 1023.05 1022.12 1021.52 1021.26 1021.30 1021.57 1021.99 1022.51 1023.05 1023.56 1024.04 1024.48 1024.88 1025.28 1025.69 1026.13 1026.60 1027.09 1027.60 1028.09 1028.56 1028.98 1029.34 1029.65 1029.92 1030.16 1030.38 1030.59 1030.81 1031.03 1031.23 1031.40 1031.52 1031.57 1031.53 1031.39
1032.84 1032.16 1031.15 1029.86 1028.36 1026.78 1025.23 1023.83 1022.69 1021.84 1021.33 1021.13 1021.20 1021.48 1021.88 1022.35 1022.81 1023.24 1023.63 1023.98 1024.32 1024.66 1025.04 1025.47 1025.96 1026.48 1027.03 1027.58 1028.09 1028.56 1028.95 1029.28 1029.56 1029.79 1030.00 1030.19 1030.39 1030.58 1030.75 1030.90 1030.99 1031.01 1030.95 1030.79
1032.13 1031.35 1030.28 1028.98 1027.53 1026.04 1024.61 1023.37 1022.37 1021.68 1021.29 1021.19 1021.33 1021.62 1022.01 1022.42 1022.81 1023.16 1023.45 1023.71 1023.96 1024.24 1024.58 1024.98 1025.46 1025.99 1026.55 1027.11 1027.64 1028.12 1028.52 1028.85 1029.11 1029.32 1029.51 1029.67 1029.83 1029.99 1030.14 1030.25 1030.32 1030.32 1030.24 1030.08
1031.16 1030.27 1029.15 1027.86 1026.49 1025.13 1023.88 1022.83 1022.04 1021.54 1021.31 1021.33 1021.55 1021.88 1022.26 1022.64 1022.97 1023.24 1023.46 1023.64 1023.82 1024.04 1024.33 1024.69 1025.14 1025.65 1026.19 1026.74 1027.25 1027.70 1028.08 1028.38 1028.61 1028.79 1028.94 1029.07 1029.19 1029.32 1029.43 1029.52 1029.57 1029.56 1029.47 1029.31
1029.99 1028.99 1027.83 1026.58 1025.31 1024.11 1023.06 1022.23 1021.66 1021.35 1021.30 1021.45 1021.75 1022.13 1022.53 1022.90 1023.20 1023.42 1023.59 1023.72 1023.86 1024.04 1024.29 1024.61 1025.02 1025.48 1025.97 1026.47 1026.93 1027.33 1027.66 1027.91 1028.10 1028.23 1028.34 1028.44 1028.53 1028.63 1028.72 1028.79 1028.82 1028.80 1028.72 1028.56
1028.70 1027.61 1026.44 1025.24 1024.10 1023.07 1022.22 1021.61 1021.25 1021.13 1021.23 1021.50 1021.88 1022.31 1022.74 1023.10 1023.40 1023.62 1023.78 1023.90 1024.03 1024.19 1024.41 1024.71 1025.06 1025.47 1025.89 1026.31 1026.70 1027.02 1027.28 1027.47 1027.61 1027.71 1027.78 1027.85 1027.93 1028.00 1028.08 1028.14 1028.17 1028.14 1028.06 1027.90
1027.40 1026.25 1025.09 1023.98 1022.97 1022.12 1021.47 1021.05 1020.88 1020.92 1021.15 1021.51 1021.95 1022.41 1022.85 1023.23 1023.54 1023.78 1023.96 1024.11 1024.26 1024.44 1024.65 1024.92 1025.24 1025.58 1025.93 1026.26 1026.56 1026.80 1026.98 1027.11 1027.20 1027.27 1027.32 1027.38 1027.45 1027.52 1027.59 1027.65 1027.67 1027.64 1027.54 1027.38
1026.14 1024.98 1023.88 1022.88 1022.03 1021.36 1020.90 1020.66 1020.64 1020.80 1021.11 1021.52 1021.98 1022.46 1022.90 1023.29 1023.62 1023.89 1024.12 1024.31 1024.51 1024.71 1024.94 1025.20 1025.48 1025.76 1026.04 1026.28 1026.49 1026.65 1026.76 1026.84 1026.90 1026.95 1027.00 1027.06 1027.14 1027.21 1027.29 1027.34 1027.35 1027.31 1027.20 1027.03
Thickness
5524 5526 5520 5518 5521 5530 5533 5534 5532 5528 5527 5532 5538 5543 5544 5543 5543 5546 5549 5551 5552 5551 5549 5547 5547 5547 5548 5548 5549 5551 5551 5552 5553 5554 5555 5557 5556 5555 5554 5553 5552 5552 5552 5551
5522 5510 5505 5509 5514 5519 5524 5525 5524 5520 5521 5526 5531 5536 5542 5539 5537 5539 5541 5542 5543 5544 5542 5540 5539 5539 5539 5539 5539 5540 5541 5541 5542 5543 5543 5544 5544 5544 5544 5542 5542 5541 5541 5540
5512 5498 5500 5507 5510 5513 5513 5517 5518 5517 5516 5518 5527 5538 5538 5534 5532 5532 5533 5534 5535 5535 5535 5534 5532 5530 5530 5529 5529 5530 5530 5531 5532 5532 5533 5534 5534 5534 5534 5532 5531 5530 5529 5528
5499 5495 5500 5505 5502 5508 5510 5504 5508 5510 5520 5523 5523 5541 5541 5533 5531 5530 5529 5529 5529 5527 5526 5525 5524 5523 5522 5520 5519 5520 5520 5521 5522 5522 5523 5524 5524 5523 5522 5521 5519 5518 5518 5517
5490 5488 5496 5499 5495 5498 5500 5498 5503 5508 5513 5516 5517 5528 5539 5526 5530 5531 5528 5525 5523 5521 5519 5517 5516 5514 5513 5511 5510 5511 5511 5511 5510 5511 5512 5512 5511 5510 5509 5508 5509 5508 5507 5505
5483 5480 5483 5486 5489 5491 5493 5497 5500 5503 5511 5516 5512 5520 5532 5530 5527 5526 5523 5520 5517 5514 5512 5509 5507 5505 5504 5503 5501 5501 5501 5501 5500 5499 5499 5499 5499 5498 5497 5497 5497 5497 5496 5494
5489 5484 5480 5482 5492 5494 5496 5504 5512 5516 5517 5520 5500 5506 5522 5521 5516 5517 5516 5514 5510 5507 5505 5502 5500 5498 5496 5494 5493 5492 5491 5491 5489 5488 5488 5487 5486 5486 5485 5485 5484 5484 5484 5482
5495 5493 5479 5479 5485 5491 5491 5499 5512 5520 5520 5519 5498 5509 5518 5507 5504 5504 5504 5503 5501 5499 5496 5493 5491 5489 5487 5484 5483 5482 5481 5480 5479 5478 5477 5475 5475 5474 5473 5472 5472 5471 5471 5470
5495 5487 5476 5476 5477 5486 5491 5493 5489 5496 5480 5495 5511 5507 5508 5501 5501 5499 5497 5496 5495 5492 5488 5485 5482 5479 5477 5475 5473 5471 5470 5470 5468 5467 5466 5465 5464 5463 5462 5462 5461 5460 5458 5457
5479 5477 5476 5475 5481 5480 5483 5484 5488 5495 5504 5512 5512 5510 5515 5505 5503 5498 5495 5492 5489 5486 5481 5476 5473 5471 5468 5466 5464 5462 5461 5460 5458 5457 5456 5455 5453 5452 5451 5451 5450 5448 5446 5445
5472 5479 5476 5477 5475 5479 5477 5478 5480 5483 5485 5503 5508 5517 5507 5503 5498 5494 5492 5487 5484 5480 5474 5469 5466 5463 5460 5458 5456 5454 5452 5451 5450 5448 5447 5445 5443 5442 5440 5439 5438 5437 5435 5433
5468 5479 5477 5472 5465 5463 5469 5473 5477 5492 5478 5477 5491 5505 5497 5491 5488 5484 5483 5479 5476 5472 5467 5463 5460 5457 5454 5451 5449 5446 5444 5443 5442 5440 5437 5435 5434 5431 5430 5429 5427 5425 5424 5421
5466 5473 5487 5488 5474 5462 5463 5463 5462 5465 5472 5473 5486 5502 5488 5481 5479 5476 5474 5472 5469 5465 5461 5458 5455 5452 5449 5446 5443 5440 5438 5436 5434 5431 5429 5427 5424 5422 5420 5418 5415 5413 5412 5410
5462 5461 5478 5497 5489 5470 5462 5460 5460 5466 5476 5474 5477 5493 5493 5486 5481 5477 5472 5468 5465 5461 5456 5454 5451 5447 5443 5440 5437 5434 5432 5429 5426 5423 5421 5418 5416 5413 5410 5407 5405 5403 5401 5399
5460 5460 5447 5449 5446 5449 5455 5458 5458 5461 5474 5479 5485 5480 5489 5486 5479 5474 5469 5464 5460 5457 5454 5450 5447 5443 5439 5436 5432 5429 5426 5423 5419 5416 5413 5411 5407 5404 5401 5398 5396 5393 5391 5389
5450 5450 5441 5443 5439 5441 5445 5454 5456 5457 5462 5466 5468 5472 5485 5480 5473 5468 5465 5460 5458 5456 5452 5448 5443 5438 5435 5431 5427 5424 5421 5417 5413 5409 5406 5403 5399 5396 5392 5389 5387 5384 5381 5379
5444 5440 5453 5464 5433 5444 5467 5469 5460 5460 5463 5469 5475 5485 5483 5474 5471 5469 5465 5460 5456 5454 5450 5445 5440 5436 5431 5427 5422 5419 5415 5411 5406 5403 5399 5396 5392 5389 5385 5381 5378 5375 5372 5369
5435 5432 5437 5449 5450 5479 5498 5471 5468 5467 5469 5470 5476 5481 5478 5474 5468 5463 5460 5457 5454 5451 5446 5442 5437 5432 5427 5421 5417 5413 5408 5404 5400 5396 5392 5389 5385 5381 5377 5373 5370 5367 5363 5360
5437 5434 5434 5443 5462 5478 5486 5470 5463 5465 5479 5480 5474 5475 5472 5463 5459 5466 5461 5455 5452 5448 5443 5438 5432 5427 5421 5416 5411 5406 5402 5397 5394 5390 5386 5382 5378 5374 5370 5366 5362 5359 5355 5351
5425 5428 5435 5436 5468 5486 5504 5473 5463 5468 5482 5489 5477 5475 5469 5460 5471 5479 5462 5453 5447 5442 5437 5431 5426 5421 5416 5411 5405 5400 5396 5392 5387 5384 5379 5375 5371 5367 5363 5359 5355 5350 5346 5342
5421 5421 5430 5438 5458 5477 5486 5462 5461 5480 5503 5488 5477 5474 5467 5465 5474 5467 5454 5448 5442 5437 5431 5426 5421 5416 5411 5405 5400 5395 5391 5387 5382 5377 5373 5368 5364 5360 5356 5351 5346 5342 5337 5333
5443 5438 5429 5430 5449 5484 5472 5461 5475 5497 5487 5478 5473 5470 5464 5463 5457 5452 5448 5442 5437 5432 5426 5421 5416 5411 5406 5400 5394 5390 5386 5382 5376 5371 5366 5361 5357 5353 5348 5343 5338 5333 5328 5324
5446 5460 5458 5460 5487 5486 5472 5479 5481 5476 5476 5474 5471 5466 5460 5456 5452 5447 5443 5438 5433 5428 5422 5416 5410 5405 5399 5393 5388 5385 5380 5374 5369 5364 5359 5354 5349 5344 5340 5335 5331 5326 5321 5317
5444 5440 5444 5445 5469 5473 5470 5472 5471 5468 5469 5470 5465 5461 5456 5453 5450 5444 5439 5433 5429 5422 5416 5410 5404 5399 5394 5388 5383 5378 5373 5367 5362 5357 5353 5347 5342 5338 5332 5327 5323 5319 5314 5310
5459 5438 5439 5445 5464 5463 5469 5471 5473 5468 5464 5461 5458 5455 5453 5450 5446 5441 5436 5429 5424 5418 5411 5405 5400 5395 5391 5384 5378 5372 5366 5361 5356 5352 5347 5341 5336 5331 5326 5321 5316 5312 5308 5303
5454 5452 5459 5482 5483 5478 5486 5480 5472 5466 5463 5460 5455 5450 5446 5443 5441 5436 5430 5425 5419 5413 5406 5400 5395 5390 5385 5379 5373 5367 5361 5355 5351 5347 5341 5336 5330 5324 5319 5315 5309 5304 5300 5295